Regional Weather Roundup
Issued by NWS

Home | Current Version | Previous Version | Text Only | Print | Product List | Glossary On
Versions: 1 2 3 4 5 6 7 8 9 10 11 12 13 14 15 16 17 18 19 20 21 22 23 24 25 26 27 28 29 30 31 32 33 34 35 36 37 38 39 40 41 42 43 44 45 46 47 48 49 50
000
ASUS43 KDMX 221706
RWRIA

WEATHER ROUNDUP FOR IOWA
NATIONAL WEATHER SERVICE DES MOINES IA
1200 PM CDT SUN APR 22 2018

NOTE: "FAIR" INDICATES FEW OR NO CLOUDS BELOW 12,000 FEET WITH NO
SIGNIFICANT WEATHER AND/OR OBSTRUCTIONS TO VISIBILITY.

* - THESE STATIONS ARE NOT NWS STATIONS...THUS NOT UNDER NWS
QUALITY CONTROL.  THEY ALSO DO NOT REPORT WEATHER SUCH
AS PRECIPITATION OR FOG.

IAZ001>003-012>014-020>022-031>034-043>046-221800-
   NORTHWEST IOWA

CITY           SKY/WX    TMP DP  RH WIND       PRES   REMARKS
CARROLL *      SUNNY     63  32  31 E15G23    30.24F
CHEROKEE *     SUNNY     56  39  52 E8        30.28S
DENISON *      SUNNY     61  30  31 E15       30.25F
LE MARS *      CLOUDY    59  34  38 E10       30.28S
ORANGE CITY *  SUNNY     57  36  44 SE7       30.29S
SHELDON *      SUNNY     55  34  44 SE9       30.28S
SIOUX CITY     MOSUNNY   61  32  33 E8G17     30.25F
SPENCER        MOSUNNY   50  35  56 E10       30.31R
STORM LAKE *   SUNNY     55  36  47 E13       30.27F
$$

IAZ055>058-069>071-079>083-090>094-221800-
   SOUTHWEST IOWA

CITY           SKY/WX    TMP DP  RH WIND       PRES   REMARKS
ATLANTIC *     MOSUNNY   61  28  29 E14G21    30.22S
AUDUBON *      SUNNY     61  30  31 E13       30.24S
CLARINDA *     MOSUNNY   63  32  31 E13       30.21S
COUNCIL BLFS * PTSUNNY   63  32  31 E10G18    30.21S
CRESTON *      SUNNY     63  32  31 E14       30.20F
HARLAN  *      MOSUNNY   61  30  31 E14       30.26S
LAMONI         CLOUDY    57  34  41 E8        30.19S
RED OAK *      MOSUNNY   63  34  34 NE14      30.20S
SHENANDOAH *   PTSUNNY   63  34  34 NE9G15    30.19F
$$

IAZ047>049-059>061-072>074-084-221800-
   CENTRAL IOWA

CITY           SKY/WX    TMP DP  RH WIND       PRES   REMARKS
AMES           MOSUNNY   59  28  30 E10       30.25F
ANKENY *       CLOUDY    61  27  27 E13G21    30.25S
BOONE *        SUNNY     61  28  29 E14       30.24F
CHARITON *     CLOUDY    57  32  38 E10G16    30.21S
DES MOINES     PTSUNNY   61  29  29 NE10      30.23F
GRINNELL*      PTSUNNY   61  23  23 E17       30.25F
KNOXVILLE *    PTSUNNY   61  27  27 E10G18    30.21F
MARSHALLTOWN   MOSUNNY   61  28  28 E20       30.25F
NEWTON *       MOSUNNY   63  25  23 E16G23    30.23F
PELLA *        CLOUDY    62  26  25 E10G16    30.24F
PERRY *        FAIR      59  21  23 E13       30.24F
$$

IAZ004>006-015-016-023>025-035-036-221800-
   NORTH CENTRAL IOWA

CITY           SKY/WX    TMP DP  RH WIND       PRES   REMARKS
ALGONA *       SUNNY     54  36  50 E12       30.31S
CLARION *      SUNNY     57  32  38 E15G21    30.29S
ESTHERVILLE    MOSUNNY   42  37  82 NE7       30.31F
FORT DODGE *   SUNNY     58  35  42 E15       30.28S
MASON CITY     SUNNY     55  37  50 E15       30.32F
FOREST CITY *  FAIR      52  37  58 NE7       30.31F
WEBSTER CITY * SUNNY     59  30  33 E15G23    30.26S
IOWA FALLS *   FAIR      60  28  29 E16       30.29S
$$

IAZ007>011-017>019-026>030-037>042-050>054-066-221800-
   NORTHEAST IOWA

CITY           SKY/WX    TMP DP  RH WIND       PRES   REMARKS
CEDAR RAPIDS   FAIR      61  23  23 E18G24    30.26F
CHARLES CITY * FAIR      57  28  33 E16       30.32S
CLINTON *      FAIR      61  25  25 E21G26    30.29F
DECORAH *      FAIR      55  28  35 E10G21    30.32S
DUBUQUE        FAIR      58  26  29 E13       30.31F
MONTICELLO *   FAIR      61  27  27 E12       30.29F
OELWEIN *      FAIR      59  30  33 E18       30.30F
WATERLOO       FAIR      60  27  28 E18       30.28F
$$

IAZ064-065-067-068-078-221800-
   EAST CENTRAL IOWA

CITY           SKY/WX    TMP DP  RH WIND       PRES   REMARKS
DAVENPORT      FAIR      58  19  22 E21       30.29F
IOWA CITY      FAIR      59  23  25 E13G22    30.27F
MT. PLEASANT * CLOUDY    63  28  27 E15G23    30.22F
MUSCATINE *    FAIR      63  27  25 NE14G21   30.25F
QUAD CITIES    FAIR      63  22  20 E20G26    30.26F
$$

IAZ062-063-075>077-085>089-095>099-221800-
   SOUTHEAST IOWA

CITY           SKY/WX    TMP DP  RH WIND       PRES   REMARKS
BURLINGTON     CLOUDY    62  30  29 NE14      30.21F
FAIRFIELD *    MOSUNNY   61  28  29 E17       30.22F
FORT MADISON * CLOUDY    63  34  34 E12G18    30.21F
KEOKUK *       CLOUDY    61  34  36 E13       30.20F
OSKALOOSA *    FAIR      62  28  27 E14       30.22F
CENTERVILLE *    N/A     59  34  38 NE12      30.21F
OTTUMWA        CLOUDY    61  31  32 E15       30.21F
WASHINGTON *   CLOUDY    63  27  25 E20       30.24F
$$

ABBREVIATIONS USED IN REMARKS
   TC - TEMPERATURES IN CELSIUS
  WCI - WIND CHILL INDEX
   HX - HEAT INDEX
  VSB - VISIBILITY
$$




USA.gov is the U.S. government's official web portal to all federal, state and local government web resources and services.